Location: B�tschwil
(47.3628°N, 9.0726°E)
Time: 18:33:29
(UTC+00:00)

Daily predictions for brighter satellites

Satellite Brightness Start Highest point End
(mag) Time Altitude Azimuth Time Altitude Azimuth Time Altitude Azimuth
Cosmos 2056 Rocket 4.5 17:23:01 10° SW 17:28:19 53° WNW 17:33:36 10° NNE
Lacrosse 5 rocket 1.5 17:24:43 10° NW 17:29:12 74° NE 17:33:27 10° ESE
CSL-04 DEB 4.4 17:26:38 10° NNE 17:30:31 59° ESE 17:34:25 10° S
Sich 1 4.2 17:28:04 10° SE 17:31:29 23° E 17:34:56 10° NE
Cosmos 1452 Rocket 3.5 17:27:55 10° S 17:33:06 66° ESE 17:38:20 10° NNE
Cosmos 44 3.6 17:28:16 10° NNW 17:33:43 66° NE 17:39:06 10° SE
Cosmos 2082 3.7 17:29:01 10° NNW 17:34:40 78° ENE 17:40:17 10° SSE
Cosmos 1782 4.5 17:32:59 10° NNW 17:36:43 39° W 17:40:26 10° SSW
CZ-4B R/B 1.0 17:34:35 10° NNE 17:37:37 71° ESE 17:40:38 10° S
Cosmos 1867 4.3 17:35:54 10° S 17:40:40 32° ESE 17:45:29 10° NE
Cosmos 1741 Rocket 4.0 17:37:42 10° NNW 17:43:04 79° ENE 17:48:23 10° SSE
Cosmos 1437 3.9 17:44:20 10° NNE 17:46:31 19° ENE 17:48:41 10° ESE
Cosmos 1697 Rocket 2.7 17:41:29 10° SSW 17:47:08 81° ESE 17:52:49 10° NNE
Cosmos 1633 Rocket 4.5 17:44:38 10° SE 17:47:35 18° E 17:50:33 10° NE
Cosmos 2360 4.2 17:42:29 10° SSW 17:48:07 68° ESE 17:53:48 10° NNE
RESURS DK-1 3.9 17:44:45 10° NW 17:48:39 40° WSW 17:52:32 10° S
ERS-2 2.7 17:46:15 10° NNE 17:49:38 35° E 17:53:01 10° SSE
USA 234 3.5 17:43:25 10° ENE 17:49:49 54° SE 17:56:11 10° SSW
Cosmos 1110 Rocket 4.3 17:45:19 10° S 17:50:21 45° ESE 17:55:25 10° NNE
MOS 1 Rocket 3.7 17:46:04 10° N 17:50:52 75° WNW 17:55:59 10° SSW
SL-16 R/B 3.7 17:49:19 10° SE 17:52:18 15° E 17:55:08 10° ENE
IRS-1C Rocket 4.1 17:47:28 10° SSE 17:52:44 90° NNW 17:58:03 10° NNW
Okean O Rocket 4.1 17:52:53 10° SSW 17:56:35 27° W 18:00:18 10° NW
PSLV R/B 4.0 17:54:29 10° NNE 17:58:33 56° E 18:02:34 10° S
NOSS 2-1 (E) 4.3 17:53:52 10° NW 17:58:45 63° NE 18:05:37 10° SE
SAR-Lupe-4 3.9 17:55:27 10° NNE 17:58:51 41° E 18:02:15 10° S
Cosmos 2369 3.7 17:53:21 10° SSW 17:58:59 79° ESE 18:04:42 10° NNE
USA 305 3.3 17:55:43 10° SSW 17:59:48 46° SE 18:03:07 15° ENE
Cosmos 1607 4.3 17:56:51 10° SW 18:03:15 71° NW 18:09:46 10° NE
SeaSat 1 2.4 18:00:38 10° NNE 18:05:35 71° ESE 18:10:31 10° SSW
Ariane Rocket 4.2 18:03:13 15° E 18:05:55 22° ENE 18:09:45 10° N
CZ-4 R/B 1.4 18:02:45 10° S 18:06:35 76° WSW 18:10:28 10° NNW
USA 307 3.2 18:03:27 10° SW 18:07:35 50° SE 18:10:33 18° ENE
Cosmos 2263 Rocket 2.4 18:03:06 10° NNW 18:08:31 49° ENE 18:13:53 10° SE
Cosmos 2074 Rocket 4.2 18:06:48 10° SSE 18:12:47 50° E 18:18:48 10° NNE
FALCON 9 DEB 3.1 18:10:45 10° SW 18:13:52 54° SE 18:15:24 26° E
USA 306 3.0 18:09:46 10° SW 18:13:57 57° SE 18:16:45 20° ENE
Cosmos 2227 Rocket 4.3 18:11:09 10° NW 18:15:58 29° WSW 18:20:46 10° SSW
SAR-Lupe-1 3.9 18:13:17 10° NNE 18:16:54 71° ESE 18:20:29 10° S
USA 308 3.0 18:13:38 10° SW 18:17:49 59° SE 18:20:27 22° ENE
Cosmos 1805 Rocket 3.5 18:16:09 10° S 18:20:30 88° W 18:24:56 10° N
Cosmos 2184 Rocket 4.0 18:19:22 10° S 18:25:22 59° E 18:31:26 10° NNE
Meteor 1-27 Rocket 3.9 18:19:58 10° NNW 18:25:30 72° W 18:30:59 10° S
H-2A R/B 2.7 18:20:58 10° S 18:26:18 62° WSW 18:31:45 10° NNW
ARGOS 3.2 18:21:40 10° SSE 18:27:05 84° WSW 18:32:34 10° NNW
Cosmos 2228 Rocket 4.2 18:24:06 10° NNW 18:28:29 47° W 18:32:46 10° SSW
SJ-6B 3.6 18:28:39 28° E 18:29:44 33° ENE 18:33:26 10° N
OBJECT-B 2.8 18:32:13 16° NNE 18:32:13 16° NNE 18:33:15 10° NNE
Cosmos 1271 Rocket 2.5 18:27:34 10° N 18:31:19 67° ENE 18:35:01 10° SSE
Cosmos 2278 3.7 18:25:42 10° SSW 18:31:22 89° ESE 18:37:07 10° NNE
SL-08 RB Rocket 3.6 18:27:27 10° SSE 18:31:56 80° ENE 18:36:28 10° N
COSMOS 2455 3.0 18:26:01 10° NW 18:32:04 76° WSW 18:38:03 10° SSE
FALCON 9 DEB 2.8 18:29:24 10° WSW 18:32:35 85° SSE 18:33:29 43° ENE
Meteor 1-25 Rocket 4.3 18:28:22 10° S 18:34:00 56° E 18:39:38 10° NNE
GP-B 3.7 18:33:07 27° ESE 18:34:35 34° E 18:38:37 10° NNE
HJ-1C 3.9 18:31:30 10° S 18:34:47 58° W 18:38:05 10° NNW
Cosmos 1461 3.9 18:32:59 10° S 18:37:07 31° ESE 18:37:23 30° ESE
MetOp-A 4.2 18:32:36 10° SE 18:37:48 55° ENE 18:43:02 10° N
CZ-2C R/B 2.6 18:32:19 10° NNE 18:37:54 74° ESE 18:43:19 10° S
Okean 1 3.6 18:34:11 10° N 18:38:01 42° ENE 18:38:49 37° ESE
Cosmos 1689 Rocket 3.1 18:35:22 10° N 18:38:09 46° WNW 18:40:53 10° SSW
Cosmos 1602 4.0 18:34:36 10° SSE 18:38:16 43° E 18:42:00 10° NNE
FALCON 9 DEB 4.5 18:36:20 10° WNW 18:39:26 31° N 18:40:28 25° NNE
Cosmos 44 Rocket 4.3 18:35:04 10° NNW 18:39:48 33° NE 18:41:15 28° ENE
CSL-04 Debris 4.4 18:34:57 10° S 18:40:21 74° WSW 18:45:50 10° NNW
Cosmos 1666 Rocket 3.4 18:38:04 10° S 18:42:24 74° E 18:46:45 10° NNE
ATLAS 5 CENTAUR R/B 3.9 18:28:27 10° WSW 18:42:55 54° NW 18:46:35 13° NNE
Cosmos 1862 Rocket 3.6 18:38:35 10° N 18:43:01 55° ENE 18:45:35 23° SSE
Cosmos 2084 3.8 18:38:50 10° SW 18:43:01 61° NW 18:46:19 17° NNE
BREEZE-M DEB (TANK) 2.0 18:43:16 10° W 18:45:32 64° N 18:46:16 45° NE
Cosmos 1844 Rocket 3.7 18:41:45 10° N 18:46:23 26° NE 18:47:04 25° ENE
Cosmos 1331 Rocket 4.3 18:41:20 10° SSW 18:46:37 71° WNW 18:51:53 10° NNE
Gbstr 26 Del rocket 3.2 18:42:52 10° SW 18:47:19 70° SSE 18:49:30 35° ENE
CSL-04 Rocket 4.0 18:42:13 10° S 18:47:45 70° WSW 18:53:18 10° NNW
Cosmos 1486 Rocket 4.2 18:43:31 10° NNW 18:48:39 50° ENE 18:50:25 36° ESE
Helios 1A Rocket 4.2 18:53:08 10° S 18:57:00 40° W 19:00:51 10° NNW
FALCON 9 DEB 3.0 18:53:53 10° WSW 18:56:59 72° NW 18:56:59 72° NW
SL-4 R/B 2.1 18:59:47 10° W 19:03:12 49° NNW 19:03:19 49° N
FALCON 9 DEB 3.7 19:02:25 10° WSW 19:05:10 51° NW 19:05:10 51° NW
Cosmos 1980 Rocket 3.1 19:01:21 10° SW 19:06:50 50° NW 19:12:23 10° NNE
APEX 4.0 19:03:55 10° NNW 19:05:43 31° NNW 19:05:43 31° NNW
Lacrosse 5 rocket 3.7 19:04:39 10° WNW 19:07:56 21° SW 19:11:00 10° S
Cosmos 1302 Rocket 4.0 19:09:26 10° SSW 19:14:38 78° WNW 19:19:52 10° NNE
Cosmos 2322 Rocket 2.5 19:10:43 10° S 19:15:03 45° SE 19:15:03 45° SE
Cosmos 968 Rocket 3.4 19:12:16 10° NNW 19:17:33 87° WSW 19:19:11 46° SSE
Cosmos 1867 4.4 19:18:48 10° WSW 19:24:05 50° NW 19:28:06 17° NNE
Cosmos 1503 Rocket 4.1 19:19:02 10° NNW 19:23:43 55° NE 19:23:43 55° NE
Cosmos 1633 Rocket 3.9 19:20:42 10° SSW 19:24:58 49° WNW 19:29:18 10° N
USA 234 3.6 19:29:24 28° NE 19:32:55 62° NNW 19:39:21 10° WSW
SL-16 R/B 2.1 19:29:52 10° SSW 19:35:33 89° ESE 19:37:13 48° NNE
USA 305 3.8 19:35:38 10° W 19:39:14 46° NW 19:39:14 46° NW
MOS 1 4.5 19:39:28 39° S 19:41:37 69° WSW 19:47:19 10° NNW
Resurs 01 Rocket 3.4 19:44:38 24° N 19:44:38 24° N 19:46:28 10° N
Ariane Rocket 3.4 19:43:24 49° SSW 19:44:28 61° WSW 19:49:33 10° NNW
USA 307 4.1 19:43:31 10° W 19:46:43 40° WNW 19:46:43 40° WNW
Cosmos 2263 Rocket 3.9 19:47:27 10° NW 19:52:11 29° WSW 19:55:56 14° SSW
USA 306 4.4 19:49:57 10° W 19:52:53 35° WNW 19:52:53 35° WNW
OBJECT-B 4.2 20:05:17 11° NW 20:05:17 11° NW 20:05:27 10° NW
Meteor 2-4 Rocket 4.4 20:05:45 10° NNW 20:11:18 52° W 20:11:52 50° WSW
BREEZE-M DEB (TANK) 4.3 20:03:32 10° W 20:17:22 74° SW 20:17:22 74° SW
USA 281 4.5 20:22:43 29° NNE 20:22:43 29° NNE 20:26:34 10° NNW
Cosmos 2278 Rocket 4.2 20:24:27 10° NNW 20:26:31 20° N 20:26:31 20° N
Cosmos 1844 Rocket 3.8 20:25:13 10° NNW 20:28:45 39° NW 20:28:45 39° NW
Cosmos 2322 Rocket 4.4 20:55:31 10° WSW 20:57:04 17° W 20:57:04 17° W
SL-16 R/B 4.5 21:16:16 10° W 21:19:19 19° WNW 21:19:19 19° WNW
